Location: Unnamed
(48.6007°N, 2.4808°E)
Time: 04:06:03
(UTC+01:00)

FENGYUN 1C DEB - Pass Details

Date: 12 December 2023
Orbit: 508 x 828 km, 98.6° (Epoch: 21 February)

Event Time Altitude Azimuth Distance (km) Brightness Sun altitude
Rises 04:50:01 0° 14° (NNE) 3,392 ? -35.7°
Reaches altitude 10° 04:52:23 10° 14° (NNE) 2,469 ? -35.3°
Enters shadow 04:52:52 13° 15° (NNE) 2,284 ? -35.2°
